• Processing (Info)

  • MPEC 2016-G30 : 2016 FT14

    The following Minor Planet Electronic Circular may be linked-to from your own Web pages, but must not otherwise be redistributed electronically.

    A form allowing access to any MPEC is at the bottom of this page.


    Read MPEC 2016-G29 Read MPEC 2016-G31


    M.P.E.C. 2016-G30                                Issued 2016 Apr. 2, 16:26 UT
    
         The Minor Planet Electronic Circulars contain information on unusual
             minor planets and routine data on comets.  They are published
        on behalf of Division F of the International Astronomical Union by the
              Minor Planet Center, Smithsonian Astrophysical Observatory,
                              Cambridge, MA 02138, U.S.A.
    
                 Prepared using the Tamkin Foundation Computer Network
    
                                  MPC@CFA.HARVARD.EDU
                URL https://www.minorplanetcenter.net/    ISSN 1523-6714
    
                                       2016 FT14
    
    Observations:
         K16F14T* C2016 03 31.34533 10 12 31.135+02 13 52.58         21.2 wLEG030F51
         K16F14T  C2016 03 31.35756 10 12 29.103+02 14 45.79         21.2 wLEG030F51
         K16F14T  C2016 03 31.36979 10 12 27.059+02 15 39.36         21.2 wLEG030F51
         K16F14T KC2016 04 01.17827410 10 47.38 +03 12 33.0          21.6 VuEG030H21
         K16F14T KC2016 04 01.18853310 10 45.85 +03 13 15.5          20.8 VuEG030H21
         K16F14T KC2016 04 01.19892510 10 44.32 +03 13 58.2          21.2 VuEG030H21
         K16F14T  C2016 04 01.26236 10 10 36.64 +03 18 32.0          21.1 RoEG030926
         K16F14T  C2016 04 01.26792 10 10 35.82 +03 18 54.8          20.9 RoEG030926
         K16F14T  C2016 04 01.27347 10 10 35.02 +03 19 18.0          20.8 RoEG030926
         K16F14T _C2016 04 01.27365610 10 39.245+03 19 36.04         21.2 RtEG030568
         K16F14T _C2016 04 01.27469310 10 39.086+03 19 40.32         20.7 RtEG030568
         K16F14T _C2016 04 01.27572610 10 38.928+03 19 44.55         20.7 RtEG030568
         K16F14T KC2016 04 02.35823 10 08 32.48 +04 31 06.5          21.0 RoEG030291
         K16F14T KC2016 04 02.35978 10 08 32.33 +04 31 12.2          21.4 RoEG030291
         K16F14T KC2016 04 02.36133 10 08 32.15 +04 31 18.2          22.1 RoEG030291
    
    Observer details:
    291 LPL/Spacewatch II.  Observer R. A. Mastaler.  1.8-m f/2.7 reflector + CCD.
    568 Mauna Kea.  Observers R. J. Wainscoat, L. Wells.  Measurers M. Micheli,
        R. J. Wainscoat.  3.6-m Canada-France-Hawaii Telescope + CCD.
    926 Tenagra II Observatory.  Observers M. Schwartz, P. R. Holvorcem.  Measurer
        M. Schwartz.  0.81-m f/7 Ritchey-Chretien + CCD.
    F51 Pan-STARRS 1, Haleakala.  Observers B. Gibson, T. Goggia, N. Primak,
        A. Schultz, M. Willman.  Measurers K. Chambers, S. Chastel, L. Denneau,
        H. Flewelling, M. Huber, E. Lilly, E. Magnier, R. Wainscoat, C. Waters,
        R. Weryk.  1.8-m Ritchey-Chretien + CCD.
    H21 Astronomical Research Observatory, Westfield.  Observer R. Holmes.
        Measurers S. Foglia, L. Buzzi, T. Linder, R. Holmes.  0.61-m f/4.5
        astrograph + CCD.
    
    Orbital elements:
    2016 FT14                                                Earth MOID = 0.0456 AU
    Epoch 2016 Jan. 13.0 TT = JDT 2457400.5                 MPC
    M  61.97499              (2000.0)            P               Q
    n   1.23862855     Peri.  183.56243     +0.93490241     -0.35419022
    a   0.8587010      Node   197.23377     +0.32746807     +0.88534479
    e   0.2599550      Incl.    4.35769     +0.13682888     +0.30118745
    P   0.80           H   24.8           G   0.15           U   8
    Residuals in seconds of arc
    160331 F51  0.0   0.1+    160401 H21  0.0   0.5-    160401 568  0.1-  0.0
    160331 F51  0.1+  0.1-    160401 926  0.3-  0.2+    160401 568  0.1-  0.0
    160331 F51  0.0   0.0     160401 926  0.2-  0.1+    160402 291  0.4-  0.1+
    160401 H21  0.1+  0.3-    160401 926  0.2+  0.5+    160402 291  0.2+  0.1-
    160401 H21  0.1-  0.2-    160401 568  0.1-  0.0     160402 291  0.3+  0.0
    
    Ephemeris:
    2016 FT14                a,e,i = 0.86, 0.26, 4                   q = 0.6355
    Date    TT    R. A. (2000) Decl.     Delta      r     Elong.  Phase     V
    2016 03 03    13 51 58.7 -53 04 06   0.06583 1.0153   109.5    67.0    21.3
    ...
    2016 03 18    11 07 32.6 -22 14 35   0.06233 1.0519   154.5    24.1    20.0
    ...
    2016 03 26    10 27 27.6 -05 30 13   0.07660 1.0656   151.7    26.4    20.6
    ...
    2016 04 01    10 11 09.9 +03 01 03   0.09233 1.0731   141.5    35.4    21.2
    2016 04 02    10 09 15.2 +04 08 39   0.09523 1.0741   139.9    36.9    21.3
    2016 04 03    10 07 31.9 +05 11 55   0.09820 1.0751   138.2    38.3    21.5
    ...
    2016 04 09    10 00 39.5 +10 14 36   0.1170  1.0795   129.3    45.9    22.1
    ...
    2016 04 17    09 58 22.6 +14 29 32   0.1436  1.0817   119.5    53.9    22.7
    ...
    2016 05 02    10 05 54.0 +18 21 16   0.1928  1.0744   105.1    64.9    23.7
    
    A. U. Tomatic                (C) Copyright 2016 MPC           M.P.E.C. 2016-G30
    

    Read MPEC 2016-G29 Read MPEC 2016-G31


    MPEC number:

    Enter an MPEC number in one of the following forms:

    • 1997-B01 (the full form)
    • J97B01 (the packed version of the full form)
    • B01 (the abbreviated form)